Wind_Speed
18 12 11 12 12 13 11 10 11 13 14 17 18 20 22 22 23 20 18 19 18 19 21 22 22 19 17 16 17 16 17 17 16 17 18 17 16 16 17 17 18 17 15
15 14 13 15 13 14 14 12 12 13 14 17 19 21 23 23 23 19 19 16 17 18 18 18 19 18 17 17 16 17 18 18 18 18 17 18 17 16 15 17 17 18 16
14 15 15 13 13 14 13 12 11 12 14 15 16 18 19 18 19 19 20 18 17 18 16 17 18 18 16 14 14 16 18 18 19 17 17 17 17 17 15 16 17 19 18
12 11 10 11 11 11 11 11 11 11 10 10 11 13 14 16 17 19 19 19 17 19 18 16 17 17 17 16 15 16 15 16 19 20 18 18 17 17 16 16 17 18 20
10 9 7 6 5 6 7 8 9 8 7 7 7 10 11 13 15 17 18 19 18 17 17 17 17 17 18 17 17 18 17 16 17 19 19 17 18 16 14 13 14 17 18
6 5 3 3 5 6 6 6 7 6 6 5 6 8 9 10 11 14 13 14 14 15 16 16 17 16 16 16 18 18 16 17 16 18 17 17 17 17 16 14 16 18 16
4 1 2 4 4 6 8 9 9 10 9 10 8 9 8 9 11 12 14 13 13 14 14 15 16 16 17 16 16 16 17 18 16 14 15 16 17 17 15 14 14 14 13
2 3 3 4 6 9 9 10 12 13 13 12 12 12 12 11 11 13 14 16 16 17 17 17 17 17 16 16 15 15 18 18 18 15 13 15 16 16 15 14 15 14 12
3 4 5 7 10 12 13 13 12 14 15 14 14 14 15 16 16 17 18 19 19 20 20 21 20 21 20 19 16 13 14 16 16 18 15 15 15 14 15 15 16 14 14
5 7 9 11 12 10 10 11 12 15 16 17 19 19 20 21 21 22 23 24 24 25 25 24 25 25 21 21 20 16 15 15 18 20 20 19 16 13 15 16 16 17 16
7 7 11 12 13 14 16 16 17 19 21 20 22 23 23 25 25 25 26 28 29 30 29 29 30 29 27 27 23 20 19 18 16 19 19 17 19 19 20 19 17 17 17
10 12 13 14 16 16 17 18 18 20 22 24 26 28 28 29 29 29 30 32 32 33 32 34 34 34 32 31 28 22 20 22 21 19 20 20 19 19 21 20 19 18 18
13 14 14 17 17 19 21 21 22 22 24 25 27 29 31 31 31 33 34 34 34 34 35 35 36 37 37 35 33 29 22 22 22 22 22 24 23 21 21 22 22 20 18
17 17 19 21 24 25 25 25 26 27 28 28 29 30 32 34 35 37 37 36 36 35 36 37 37 38 38 37 35 34 31 27 25 23 23 26 26 24 22 24 24 23 22
17 20 21 25 27 28 27 29 31 32 32 32 34 36 36 36 38 40 41 40 40 39 38 39 38 39 37 38 37 36 36 33 30 26 26 27 28 27 26 25 25 24 25
19 19 22 28 30 31 30 31 32 34 36 37 37 38 38 40 41 41 42 43 43 43 43 41 39 40 40 39 37 39 41 37 33 29 26 28 28 29 28 27 27 27 26
21 24 26 29 33 31 31 33 33 35 37 37 38 40 42 44 46 44 44 45 46 47 47 45 44 41 41 40 39 39 40 40 37 32 29 29 29 31 31 29 30 30 28
25 27 28 29 29 31 33 33 32 33 35 37 39 43 45 48 49 49 49 48 48 49 49 50 48 45 45 44 42 42 43 43 42 38 32 30 32 33 33 34 31 31 32
26 27 28 28 29 33 35 34 36 35 36 37 41 43 45 46 49 51 51 52 52 50 52 53 52 50 49 48 48 48 46 45 45 41 39 36 34 34 34 35 34 35 35
26 28 30 28 29 29 31 34 37 39 42 45 49 50 50 49 51 54 57 55 56 55 55 56 58 56 48 58 55 46 46 44 42 41 39 39 38 37 36 37 38 38 37
30 37 44 40 35 38 39 36 37 41 47 51 52 54 54 52 53 54 56 58 57 56 57 58 62 60 57 56 60 47 46 40 41 43 41 38 38 39 41 38 38 40 43
36 41 44 42 37 37 38 41 45 51 55 55 57 57 56 56 55 55 56 56 56 57 57 54 57 52 52 52 50 55 48 44 42 45 46 40 43 42 44 42 41 46 49
42 41 38 34 35 39 43 47 51 55 59 60 62 61 59 60 58 59 59 57 56 57 56 60 63 55 54 52 53 52 53 49 48 58 47 50 48 47 49 47 49 49 52
41 36 33 36 40 43 46 50 54 58 63 64 63 62 62 59 58 60 60 57 56 55 54 57 55 56 58 55 53 53 51 49 52 58 58 56 58 60 58 56 53 50 59
38 35 36 41 43 46 49 51 56 61 64 66 65 65 66 64 61 58 57 60 58 55 51 47 49 49 48 49 51 53 56 59 62 63 65 65 62 63 62 58 53 48 54
36 35 40 43 47 49 52 55 59 64 66 66 67 65 65 62 61 60 58 59 56 53 54 53 52 54 56 58 60 63 65 65 65 62 62 62 61 61 65 63 61 59 57
Wind_Direction
285 283 273 266 274 282 288 300 307 308 314 314 318 325 322 326 329 330 327 331 323 318 318 331 334 323 313 309 308 309 309 306 306 297 291 278 273 270 265 263 260 251 249
282 268 273 286 280 293 298 300 302 306 311 315 317 318 323 326 328 322 324 328 322 316 314 319 325 322 321 315 309 309 309 311 311 307 298 292 279 270 271 271 267 261 254
283 261 280 286 293 295 289 288 292 298 305 307 312 317 316 316 318 318 316 315 309 311 313 318 322 320 318 316 310 307 308 314 316 313 307 296 291 284 274 269 269 265 254
280 263 272 278 273 272 276 289 293 285 282 289 301 301 300 303 307 313 309 310 294 303 313 319 317 317 320 315 309 303 307 311 314 315 316 316 303 289 276 267 261 263 255
252 255 259 255 264 270 282 285 280 272 268 275 296 296 306 309 318 320 314 317 314 315 323 322 319 318 319 313 309 308 311 309 307 308 311 314 315 292 285 288 273 260 256
218 204 227 266 282 279 287 301 304 296 312 305 300 309 307 304 304 303 310 315 313 312 313 311 311 315 314 315 317 316 313 305 303 304 308 308 307 305 296 285 279 271 265
173 184 3 5 340 347 347 344 340 329 336 335 335 317 317 307 307 301 302 295 290 290 290 297 301 306 308 307 311 313 315 307 291 288 298 300 300 303 308 293 278 274 274
43 25 19 348 347 345 338 339 342 338 330 327 324 315 304 298 288 284 282 280 284 288 290 289 291 293 290 294 300 315 309 304 295 288 286 290 291 296 304 303 292 281 274
326 342 352 351 347 347 345 340 337 335 327 311 304 291 289 285 282 278 274 271 271 273 276 281 288 292 289 288 288 300 301 304 293 285 279 275 280 289 296 296 293 293 282
307 330 340 339 331 330 316 315 321 314 308 304 298 293 288 287 284 283 283 280 277 274 274 276 278 279 282 284 285 289 287 291 292 302 285 275 272 278 285 285 289 290 284
306 321 326 316 311 321 320 316 315 315 305 295 292 290 287 286 286 285 281 279 279 280 279 276 276 278 278 281 282 281 281 281 284 286 294 285 264 265 276 283 282 283 286
309 315 309 310 315 314 312 311 308 305 302 298 295 293 290 289 287 284 280 280 281 282 281 281 280 280 279 278 283 281 279 284 284 278 280 283 274 270 278 281 279 277 278
309 307 313 309 300 300 302 300 296 294 295 295 294 292 292 289 287 285 283 284 282 280 280 279 280 281 282 279 280 285 279 276 279 280 278 277 274 275 276 280 281 279 278
305 302 303 299 294 294 295 297 299 301 299 296 294 291 290 288 286 284 282 280 276 275 275 276 277 278 279 281 281 281 283 280 276 273 271 273 276 272 271 274 276 274 274
296 299 297 291 288 290 300 302 301 299 297 297 298 296 295 291 287 285 284 283 282 279 275 274 274 274 275 278 279 278 277 279 278 275 273 271 272 271 269 269 272 272 274
296 293 290 286 294 304 302 297 296 296 297 297 295 295 294 291 288 286 285 283 280 279 278 276 276 275 274 273 271 273 275 274 272 271 271 271 271 272 271 268 268 269 271
296 284 284 292 298 295 291 291 293 294 295 295 294 295 295 292 288 286 283 281 278 278 278 277 276 276 275 272 271 271 272 271 266 264 268 269 269 272 273 272 273 273 272
285 293 292 289 293 294 293 293 293 292 291 291 292 290 289 287 286 287 284 283 278 278 277 275 273 274 274 272 269 268 269 268 265 261 262 264 265 268 271 272 271 274 275
292 291 290 293 296 295 297 300 301 300 297 293 290 288 285 285 287 287 284 280 278 275 275 276 275 273 272 270 267 264 263 263 264 264 259 262 259 259 262 266 268 271 273
296 299 302 305 301 303 305 304 302 301 298 296 297 300 301 295 289 288 287 285 281 280 277 274 274 273 276 269 269 259 260 260 263 262 261 265 264 263 262 264 268 271 272
308 316 312 309 309 307 304 299 295 294 294 298 299 302 302 302 298 292 288 284 281 281 280 278 276 268 264 274 274 266 253 257 262 257 260 265 266 269 268 269 271 276 280
311 308 299 297 299 299 300 302 301 298 300 305 306 305 305 302 297 292 288 284 282 280 278 278 277 275 269 270 275 269 264 260 262 265 260 259 265 269 271 269 271 271 274
304 298 292 295 301 300 300 300 300 303 305 307 306 306 305 304 298 294 292 287 283 280 277 272 276 268 268 267 268 271 271 273 274 275 258 268 261 270 268 271 269 273 273
298 296 294 300 301 302 303 301 300 301 302 303 304 305 305 302 298 296 293 288 284 282 283 282 282 270 263 265 268 270 273 274 274 274 272 272 268 274 273 264 263 273 272
298 297 299 303 303 301 299 298 299 299 299 301 305 307 305 302 299 296 294 289 285 283 282 282 282 284 280 279 277 275 274 274 273 276 276 277 272 271 269 258 257 263 260
298 298 299 299 298 298 298 301 299 298 297 302 305 303 301 300 297 297 294 289 287 285 282 278 277 277 278 275 274 275 273 274 275 275 271 273 271 271 266 262 263 259 259
Height
5858 5857 5858 5857 5857 5857 5856 5855 5855 5854 5853 5852 5851 5851 5850 5849 5848 5847 5846 5844 5843 5842 5841 5839 5838 5837 5835 5834 5833 5831 5829 5828 5826 5826 5824 5823 5823 5823 5823 5823 5824 5823 5823
5856 5855 5856 5856 5855 5855 5854 5854 5854 5853 5852 5851 5850 5850 5848 5847 5846 5845 5844 5843 5842 5839 5838 5837 5837 5835 5833 5832 5832 5830 5828 5826 5825 5824 5822 5821 5820 5820 5820 5820 5820 5821 5820
5855 5854 5855 5854 5853 5853 5853 5852 5852 5851 5850 5849 5849 5849 5848 5846 5844 5843 5842 5842 5841 5839 5837 5836 5835 5834 5832 5829 5828 5827 5826 5825 5823 5821 5820 5819 5818 5817 5815 5816 5816 5817 5817
5853 5853 5852 5852 5851 5852 5852 5851 5850 5848 5847 5847 5846 5846 5844 5844 5843 5841 5840 5839 5837 5836 5835 5834 5833 5832 5831 5829 5827 5824 5823 5821 5821 5819 5818 5817 5815 5814 5813 5812 5812 5812 5813
5852 5851 5851 5851 5850 5850 5849 5848 5848 5846 5845 5845 5844 5844 5843 5843 5842 5842 5841 5840 5838 5837 5835 5833 5832 5831 5829 5827 5824 5822 5821 5819 5817 5817 5817 5816 5814 5811 5811 5810 5810 5810 5811
5851 5851 5850 5849 5849 5849 5848 5848 5848 5846 5844 5843 5843 5843 5843 5841 5839 5839 5838 5838 5836 5835 5834 5832 5830 5829 5829 5827 5825 5822 5820 5817 5814 5814 5814 5814 5813 5811 5810 5809 5809 5808 5808
5849 5849 5849 5849 5849 5848 5848 5848 5847 5846 5845 5844 5843 5843 5841 5840 5839 5837 5837 5835 5833 5831 5830 5829 5827 5826 5826 5824 5823 5821 5820 5816 5812 5810 5812 5811 5810 5810 5809 5808 5806 5806 5806
5849 5848 5848 5849 5849 5847 5847 5846 5846 5845 5844 5843 5842 5841 5840 5838 5837 5835 5833 5832 5831 5830 5828 5827 5825 5823 5822 5821 5820 5819 5817 5813 5812 5810 5808 5808 5807 5808 5808 5807 5805 5805 5805
5848 5847 5848 5847 5846 5845 5844 5844 5843 5841 5839 5839 5838 5836 5835 5834 5833 5831 5830 5828 5826 5825 5823 5822 5820 5820 5819 5818 5816 5816 5814 5812 5809 5807 5806 5804 5804 5805 5805 5805 5804 5804 5804
5847 5846 5846 5845 5844 5843 5843 5842 5841 5840 5838 5836 5835 5834 5832 5830 5829 5828 5826 5824 5822 5820 5818 5816 5815 5814 5813 5813 5813 5812 5810 5808 5806 5804 5803 5803 5801 5801 5801 5800 5801 5802 5802
5844 5843 5844 5844 5843 5841 5840 5839 5838 5836 5834 5832 5830 5829 5828 5826 5825 5824 5821 5819 5817 5815 5814 5812 5810 5808 5808 5807 5808 5808 5807 5804 5802 5800 5800 5799 5797 5799 5798 5798 5797 5798 5798
5843 5843 5842 5841 5840 5838 5837 5836 5834 5833 5831 5829 5827 5826 5823 5821 5820 5818 5815 5814 5812 5810 5808 5807 5805 5803 5802 5801 5802 5803 5801 5800 5799 5796 5794 5795 5795 5794 5794 5794 5793 5793 5792
5841 5840 5839 5839 5836 5834 5833 5831 5828 5827 5825 5824 5822 5820 5818 5817 5814 5813 5811 5809 5807 5804 5803 5800 5799 5797 5797 5795 5795 5795 5796 5794 5794 5793 5791 5789 5788 5789 5789 5788 5789 5788 5787
5837 5837 5835 5833 5831 5829 5827 5825 5824 5822 5821 5819 5817 5814 5813 5811 5808 5805 5803 5801 5799 5796 5795 5793 5790 5790 5790 5789 5788 5788 5788 5787 5787 5786 5785 5783 5783 5783 5783 5783 5783 5783 5782
5831 5830 5830 5827 5825 5824 5822 5820 5818 5816 5814 5813 5811 5809 5807 5804 5802 5799 5796 5794 5793 5791 5787 5785 5782 5781 5782 5781 5780 5779 5778 5779 5779 5778 5778 5777 5775 5776 5776 5776 5776 5775 5776
5826 5827 5823 5820 5820 5819 5817 5815 5812 5811 5809 5807 5804 5801 5799 5796 5794 5791 5788 5786 5783 5782 5780 5777 5775 5773 5773 5772 5771 5770 5769 5770 5770 5769 5769 5769 5768 5768 5768 5769 5768 5769 5769
5821 5820 5818 5817 5815 5813 5811 5809 5807 5806 5803 5800 5798 5794 5791 5788 5785 5781 5779 5777 5775 5772 5770 5768 5765 5762 5763 5763 5761 5760 5759 5759 5760 5760 5760 5760 5761 5760 5760 5760 5761 5761 5761
5817 5815 5813 5812 5810 5808 5805 5803 5801 5799 5796 5793 5789 5786 5782 5777 5773 5771 5769 5767 5764 5761 5759 5756 5753 5751 5751 5752 5752 5750 5749 5748 5748 5750 5751 5751 5752 5751 5751 5752 5752 5753 5754
5812 5811 5809 5808 5806 5802 5800 5796 5793 5790 5788 5785 5780 5776 5772 5769 5764 5760 5758 5756 5754 5752 5749 5745 5743 5741 5738 5739 5738 5738 5737 5737 5737 5738 5740 5741 5742 5742 5742 5742 5743 5744 5745
5807 5806 5804 5801 5799 5796 5794 5790 5785 5781 5777 5772 5768 5766 5763 5760 5754 5748 5744 5742 5740 5738 5737 5735 5731 5729 5729 5719 5721 5723 5725 5725 5726 5727 5729 5730 5731 5732 5733 5733 5733 5734 5735
5799 5796 5793 5792 5790 5788 5786 5782 5777 5772 5767 5763 5760 5757 5752 5749 5744 5738 5734 5729 5726 5724 5722 5720 5717 5717 5716 5704 5708 5707 5710 5714 5716 5716 5717 5720 5722 5723 5723 5724 5724 5725 5726
5794 5790 5788 5784 5782 5779 5774 5769 5765 5760 5755 5752 5747 5743 5739 5733 5728 5723 5718 5716 5713 5711 5708 5706 5703 5700 5700 5698 5698 5697 5694 5701 5702 5706 5708 5707 5710 5711 5713 5713 5715 5715 5715
5785 5783 5779 5776 5773 5769 5766 5761 5755 5749 5744 5740 5735 5730 5726 5721 5716 5710 5706 5702 5699 5697 5695 5692 5690 5687 5685 5685 5685 5685 5683 5688 5691 5692 5693 5694 5696 5699 5702 5701 5703 5702 5703
5777 5773 5769 5766 5763 5759 5755 5750 5745 5739 5733 5728 5723 5718 5713 5708 5703 5696 5691 5687 5684 5683 5682 5678 5675 5673 5672 5672 5671 5671 5672 5675 5677 5679 5680 5682 5682 5685 5687 5688 5688 5690 5689
5765 5762 5760 5757 5753 5750 5745 5740 5734 5728 5721 5715 5711 5705 5699 5693 5689 5685 5678 5674 5670 5669 5667 5665 5663 5660 5658 5658 5659 5659 5659 5660 5661 5663 5663 5665 5667 5668 5669 5672 5675 5677 5678
5756 5753 5751 5747 5744 5739 5734 5728 5721 5712 5705 5701 5696 5691 5685 5682 5676 5671 5665 5660 5656 5654 5653 5651 5648 5647 5647 5647 5646 5645 5646 5644 5644 5645 5645 5646 5647 5648 5651 5655 5659 5662 5664